Weather History for KNDZ - May, 2013

Change the Weather History Date:

Sunday, May 5, 2013

  Actual Average (KNSE) Record (KNSE)
Temperature  
Mean Temperature 58 °F -  
Max Temperature 73 °F 80 °F 91 °F (2012)
Min Temperature 43 °F 60 °F 44 °F (2013)
Degree Days  
Heating Degree Days 7    
Growing Degree Days 8 (Base 50)    
Moisture  
Dew Point 42 °F    
Average Humidity 61    
Maximum Humidity 90    
Minimum Humidity 30    
Precipitation  
Precipitation 0.00 in - - ()
Sea Level Pressure  
Sea Level Pressure 29.86 in    
Wind  
Wind Speed 4 mph (WNW)    
Max Wind Speed 16 mph    
Max Gust Speed 28 mph    
Visibility 10 miles    
Events      
Averages and records for this station are not official NWS values.
T = Trace of Precipitation, MM = Missing Value Source: NWS Daily Summary

Daily Weather History Graph

Daily Weather History Graph

Search for Another Location

Airport or City:

Trip Planner

Search our weather history database for the weather conditions in past years. The results will help you decide how hot, cold, wet, or windy it might be!

Date:

Astronomy

May. 05, 2013 Rise Set
Actual Time 6:00 AM CDT 7:29 PM CDT
Civil Twilight 5:34 AM CDT 7:55 PM CDT
Nautical Twilight 5:03 AM CDT 8:26 PM CDT
Astronomical Twilight 4:31 AM CDT 8:58 PM CDT
Moon 3:13 AM CDT (5/5) 3:43 PM CDT (5/5)
Length of Visible Light 14h 20m
Length of Day
13h 28m
Waning Crescent, 18% of the Moon is Illuminated
May 5
Waning Crescent
May 9
New
May 17
First Quarter
May 24
Full
May 31
Last Quarter

Hourly Weather History & Observations

Time (CDT) Temp. Dew Point Humidity Pressure Visibility Wind Dir Wind Speed Gust Speed Precip Events Conditions
12:05 AM - - N/A% - - North - - N/A   Unknown
12:56 AM 45.0 °F 42.1 °F 90% 29.87 in 10.0 mi Calm Calm - N/A   Clear
1:56 AM 44.1 °F 41.0 °F 89% 29.86 in 10.0 mi Calm Calm - N/A   Clear
2:00 AM - - N/A% - - North - - N/A   Unknown
2:56 AM 44.1 °F 41.0 °F 89% 29.86 in 10.0 mi Calm Calm - N/A   Clear
3:56 AM 43.0 °F 39.9 °F 89% 29.86 in 10.0 mi Calm Calm - N/A   Clear
4:56 AM 44.1 °F 41.0 °F 89% 29.85 in 10.0 mi Calm Calm - N/A   Clear
5:56 AM 45.0 °F 39.9 °F 82% 29.86 in 10.0 mi Calm Calm - N/A   Clear
6:56 AM 50.0 °F 46.0 °F 86% 29.86 in 10.0 mi Calm Calm - N/A   Partly Cloudy
7:56 AM 57.9 °F 50.0 °F 75% 29.85 in 10.0 mi South 4.6 mph - N/A   Clear
8:56 AM 64.9 °F 54.0 °F 68% 29.84 in 10.0 mi Variable 4.6 mph - N/A   Partly Cloudy
9:56 AM 70.0 °F 54.0 °F 57% 29.83 in 10.0 mi SW 11.5 mph 20.7 mph N/A   Mostly Cloudy
10:56 AM 72.0 °F 52.0 °F 49% 29.82 in 10.0 mi WSW 12.7 mph 21.9 mph N/A   Scattered Clouds
11:56 AM 73.0 °F 44.1 °F 35% 29.82 in 10.0 mi WSW 9.2 mph 20.7 mph N/A   Partly Cloudy
12:56 PM 72.0 °F 39.9 °F 31% 29.81 in 10.0 mi West 11.5 mph 21.9 mph N/A   Partly Cloudy
1:56 PM 73.0 °F 39.9 °F 30% 29.80 in 10.0 mi WNW 13.8 mph 27.6 mph N/A   Partly Cloudy
2:56 PM 71.1 °F 41.0 °F 34% 29.79 in 10.0 mi West 11.5 mph 23.0 mph N/A   Scattered Clouds
3:56 PM 69.1 °F 43.0 °F 39% 29.81 in 10.0 mi NW 13.8 mph 24.2 mph N/A   Clear
4:56 PM 66.0 °F 39.9 °F 38% 29.83 in 10.0 mi NNW 16.1 mph 24.2 mph N/A   Partly Cloudy
5:56 PM 64.0 °F 37.0 °F 37% 29.85 in 10.0 mi NW 12.7 mph 23.0 mph N/A   Clear
6:56 PM 60.1 °F 37.9 °F 44% 29.87 in 10.0 mi NW 11.5 mph - N/A   Clear
7:56 PM 57.0 °F 37.0 °F 47% 29.90 in 10.0 mi NW 8.1 mph - N/A   Clear
8:56 PM 54.0 °F 37.9 °F 55% 29.92 in 10.0 mi NW 5.8 mph - N/A   Clear
9:56 PM 50.0 °F 39.0 °F 66% 29.94 in 10.0 mi Calm Calm - N/A   Clear
10:56 PM 48.0 °F 39.9 °F 74% 29.95 in 10.0 mi WNW 4.6 mph - N/A   Clear
11:56 PM 48.0 °F 41.0 °F 77% 29.95 in 10.0 mi NW 9.2 mph - N/A   Clear